This demonstration page uses our WeatherBlox Daily Observations layout. Learn more.

41.55636, -103.73856

Hourly Observations for February 26, 2019

Temp ( °F °C ) Dew Point ( °F °C ) Humidity (%) Winds ( mph kmh ) Pressure ( in mb ) Visibility ( mi km ) Precip ( " mm )
12:58 am 00:58 Cloudy with Light Snow Showers 9 -12.8 6 -14.7 86 86 SE 9 15 30.38 1029 10 16.0934 N/A
1:58 am 01:58 Cloudy with Light Snow Showers 8 -13.1 6 -14.4 90 90 SE 14 22 30.39 1029 9 14.48406 N/A
2:58 am 02:58 Mostly Cloudy with Scattered Snow Showers 8 -13.3 5 -14.8 89 89 SSE 15 24 30.19 1022 8 12.87472 N/A
3:58 am 03:58 Mostly Cloudy with Scattered Snow Showers 8 -13.4 5 -15 88 88 S 17 28 30.15 1021 9 14.48406 N/A
4:58 am 04:58 Mostly Cloudy with Scattered Snow Showers 9 -12.9 6 -14.4 89 89 S 18 30 30.11 1020 4 6.43736 N/A
5:58 am 05:58 Mostly Cloudy with Scattered Snow Showers 10 -12.3 7 -13.7 89 89 SSW 20 31 30.15 1021 4 6.43736 N/A
6:58 am 06:58 Mostly Cloudy with Scattered Snow Showers 11 -11.9 8 -13.4 89 89 S 24 39 30.12 1020 1 1.60934 N/A
7:58 am 07:58 Mostly Cloudy with Scattered Snow Showers 10 -12 8 -13.6 88 88 S 23 37 30.14 1021 1 1.60934 N/A
8:58 am 08:58 Mostly Cloudy with Scattered Snow Showers 11 -11.6 8 -13.1 89 89 S 21 33 30.15 1021 7 11.26538 N/A
9:58 am 09:58 Mostly Cloudy with Scattered Snow Showers 11 -11.4 9 -12.9 89 89 SSW 14 22 30.16 1021 7 11.26538 N/A
10:58 am 10:58 Mostly Cloudy with Scattered Snow Showers 12 -11.2 9 -12.7 89 89 S 15 24 30.14 1021 1.25 2.011675 N/A
11:58 am 11:58 Clear 13 -10.7 10 -12.1 90 90 SSW 15 24 30.12 1020 8 12.87472 N/A
12:58 pm 12:58 Clear 13 -10.7 10 -12.2 89 89 SSW 14 22 30.12 1020 8 12.87472 N/A
1:58 pm 13:58 Sunny 14 -9.8 12 -11.1 90 90 SSW 15 24 30.12 1020 10 16.0934 N/A
2:58 pm 14:58 Sunny 18 -7.8 16 -9 91 91 SSW 9 15 30.14 1021 10 16.0934 N/A
3:58 pm 15:58 Sunny 26 -3.6 23 -4.9 91 91 SSW 10 17 30.11 1020 10 16.0934 N/A
4:56 pm 16:56 Sunny 37 2.6 26 -3.6 64 64 SSW 5 7 30.06 1018 10 16.0934 N/A
5:56 pm 17:56 Sunny 50 10 19 -7 30 30 SSW 13 20 30 1016 10 16.0934 N/A
6:56 pm 18:56 Sunny 52 11 16 -8.9 24 24 SSW 7 11 29.98 1015 10 16.0934 N/A
8:56 pm 20:56 Sunny 53 11.9 19 -7.5 25 25 NE 9 15 29.96 1015 10 16.0934 N/A
9:56 pm 21:56 Sunny 56 13.1 16 -8.8 21 21 NE 3 6 29.96 1015 10 16.0934 N/A

Powered by AerisWeather